Location: Newark
(21.1200°N, 73.4000°E)
Time: 10:14:40
(UTC+00:00)

Vanguard 1 Rocket - Pass Details

Date: 23 January 2021
Orbit: 654 x 4223 km, 34.3° (Epoch: 07 March)

Event Time Altitude Azimuth Distance (km) Brightness Sun altitude
Rises 13:51:31 0° 287° (WNW) 3,647 11.5 -14.3°
Reaches altitude 10° 13:53:44 10° 280° (W) 2,948 11.1 -14.7°
Maximum altitude 14:00:37 45° 209° (SSW) 2,076 9.5 -16.3°
Drops below altitude 10° 14:13:29 10° 142° (SE) 5,380 11.1 -19.2°
Sets 14:19:12 0° 137° (SE) 6,991 11.6 -20.5°
